Starlink 6368

operational
NORAD ID: 57234 Int'l Des: 2023-094 Owner: SPXS Country: US Constellation: starlink
LEOCIRCULAR

About Starlink 6368

Description loading...

Live Position

Loading 3D Globe...

Upcoming Passes

Altitude History

Altitude vs Time

uPlot chart will show altitude changes over time

Two-Line Element Set

1 57234U 23094S 25303.58573289 .00000302 00000-0 37399-4 0 9999
2 57234 43.0050 16.8681 0001168 276.8008 83.2702 15.02534535127557
Epoch: Oct 30, 2025 • Age: 29 hours

Current Status

Altitude 558.1 km
Velocity 7.58 km/s
Sub-Earth Point 9.21°N, 57.44°E
Launch Date Jul 7, 2023
Age 2.3 years
Type internet

Technical Details

Classification Payload
Mass 305.00 kg
Dry Mass 290.00 kg
Total Mass 305.00 kg
Length 0.20 m
Diameter 2.80 m
Span 9.00 m
Shape Box + pan
Manufacturer SPXS
Bus Type Starlink
Phase Status In Orbit
Owner/State SPXS/US

Large Constellations

Loading constellations...